| time (UTC) | temp C | wind direction | speed KPH | gust KPH | rain 1hr cm | rain 24hr cm | rain mn cm | humidity % | barometer mb |
| 20260507181549 | 20 | 251 | 1.6 | 8.0 | 0.00 | 0.00 | 0.00 | 76 | 1016.2 |
| 20260507180046 | 19 | 236 | 3.2 | 11.3 | 0.00 | 0.00 | 0.00 | 75 | 1016.2 |
| 20260507174551 | 19 | 265 | 0.0 | 4.8 | 0.00 | 0.00 | 0.00 | 75 | 1016.1 |
| 20260507173051 | 20 | 267 | 0.0 | 4.8 | 0.00 | 0.00 | 0.00 | 75 | 1016.2 |
| 20260507171552 | 19 | 0 | 0.0 | 4.8 | 0.00 | 0.00 | 0.00 | 79 | 1016.2 |
| 20260507170052 | 18 | 0 | 0.0 | 4.8 | 0.00 | 0.00 | 0.00 | 82 | 1016.3 |
| 20260507164605 | 17 | 0 | 0.0 | 4.8 | 0.00 | 0.00 | 0.00 | 83 | 1016.3 |
| 20260507163051 | 17 | 271 | 0.0 | 1.6 | 0.00 | 0.00 | 0.00 | 83 | 1016.5 |
| 20260507161554 | 18 | 0 | 0.0 | 3.2 | 0.00 | 0.00 | 0.00 | 82 | 1016.5 |
| 20260507160054 | 18 | 0 | 0.0 | 1.6 | 0.00 | 0.00 | 0.00 | 82 | 1016.5 |
| 20260507154551 | 17 | 0 | 0.0 | 1.6 | 0.00 | 0.00 | 0.00 | 83 | 1016.5 |
| 20260507153046 | 17 | 0 | 0.0 | 1.6 | 0.00 | 0.00 | 0.00 | 84 | 1016.4 |
| 20260507151552 | 17 | 0 | 0.0 | 1.6 | 0.00 | 0.00 | 0.00 | 84 | 1016.3 |
| 20260507150049 | 17 | 0 | 0.0 | 3.2 | 0.00 | 0.00 | 0.00 | 84 | 1016.3 |
| 20260507144552 | 17 | 0 | 0.0 | 3.2 | 0.00 | 0.00 | 0.00 | 84 | 1016.2 |
| 20260507143107 | 17 | 0 | 0.0 | 1.6 | 0.00 | 0.00 | 0.00 | 85 | 1016.2 |
| 20260507141607 | 17 | 0 | 0.0 | 1.6 | 0.00 | 0.00 | 0.00 | 85 | 1016.0 |
| 20260507140053 | 17 | 0 | 0.0 | 1.6 | 0.00 | 0.00 | 0.00 | 86 | 1015.9 |
| 20260507134551 | 16 | 0 | 0.0 | 0.0 | 0.00 | 0.00 | 0.00 | 86 | 1015.8 |
| 20260507133052 | 16 | 0 | 0.0 | 3.2 | 0.00 | 0.00 | 0.00 | 86 | 1015.8 |
| 20260507131559 | 16 | 0 | 0.0 | 0.0 | 0.00 | 0.00 | 0.00 | 86 | 1015.8 |
| 20260507130051 | 16 | 0 | 0.0 | 0.0 | 0.00 | 0.00 | 0.00 | 86 | 1015.7 |
| 20260507124547 | 16 | 0 | 0.0 | 0.0 | 0.00 | 0.00 | 0.00 | 86 | 1015.6 |
| 20260507123108 | 16 | 0 | 0.0 | 0.0 | 0.00 | 0.00 | 0.00 | 86 | 1015.5 |
| 20260507121552 | 16 | 0 | 0.0 | 3.2 | 0.00 | 0.00 | 0.00 | 86 | 1015.5 |
| 20260507120047 | 16 | 0 | 0.0 | 3.2 | 0.00 | 0.00 | 0.00 | 86 | 1015.4 |
| 20260507114553 | 16 | 0 | 0.0 | 3.2 | 0.00 | 0.00 | 0.00 | 87 | 1015.4 |
| 20260507113052 | 16 | 0 | 0.0 | 1.6 | 0.00 | 0.00 | 0.00 | 87 | 1015.3 |
| 20260507111548 | 17 | 0 | 0.0 | 3.2 | 0.00 | 0.00 | 0.00 | 87 | 1015.4 |
| 20260507110052 | 16 | 0 | 0.0 | 0.0 | 0.00 | 0.00 | 0.00 | 87 | 1015.5 |
| 20260507104551 | 16 | 0 | 0.0 | 0.0 | 0.00 | 0.00 | 0.00 | 87 | 1015.6 |
| 20260507103050 | 16 | 0 | 0.0 | 0.0 | 0.00 | 0.00 | 0.00 | 87 | 1015.7 |
| 20260507101551 | 16 | 0 | 0.0 | 0.0 | 0.00 | 0.00 | 0.00 | 87 | 1015.8 |
| 20260507100057 | 16 | 0 | 0.0 | 0.0 | 0.00 | 0.00 | 0.00 | 87 | 1015.9 |
| 20260507094553 | 16 | 0 | 0.0 | 0.0 | 0.00 | 0.00 | 0.00 | 87 | 1016.0 |
| 20260507093048 | 16 | 0 | 0.0 | 0.0 | 0.00 | 0.00 | 0.00 | 87 | 1016.1 |
| 20260507091551 | 16 | 0 | 0.0 | 0.0 | 0.00 | 0.00 | 0.00 | 88 | 1016.2 |
| 20260507090059 | 16 | 0 | 0.0 | 1.6 | 0.00 | 0.00 | 0.00 | 88 | 1016.3 |
| 20260507084557 | 16 | 0 | 0.0 | 0.0 | 0.00 | 0.00 | 0.00 | 88 | 1016.5 |
| 20260507083050 | 16 | 0 | 0.0 | 0.0 | 0.00 | 0.00 | 0.00 | 89 | 1016.5 |
| 20260507081554 | 16 | 0 | 0.0 | 0.0 | 0.00 | 0.00 | 0.00 | 88 | 1016.7 |
| 20260507080112 | 16 | 0 | 0.0 | 0.0 | 0.00 | 0.00 | 0.00 | 88 | 1016.8 |
| 20260507074547 | 16 | 0 | 0.0 | 0.0 | 0.00 | 0.00 | 0.00 | 88 | 1016.8 |
| 20260507073050 | 16 | 0 | 0.0 | 0.0 | 0.00 | 0.00 | 0.00 | 88 | 1016.9 |
| 20260507071549 | 16 | 0 | 0.0 | 0.0 | 0.00 | 0.00 | 0.00 | 87 | 1016.7 |
| 20260507070054 | 16 | 0 | 0.0 | 0.0 | 0.00 | 0.00 | 0.00 | 87 | 1016.8 |
| 20260507064619 | 16 | 0 | 0.0 | 0.0 | 0.00 | 0.00 | 0.00 | 87 | 1017.0 |
| 20260507063053 | 16 | 0 | 0.0 | 0.0 | 0.00 | 0.00 | 0.00 | 87 | 1017.1 |
| 20260507061549 | 16 | 0 | 0.0 | 0.0 | 0.00 | 0.00 | 0.00 | 86 | 1017.0 |
| 20260507060110 | 16 | 0 | 0.0 | 0.0 | 0.00 | 0.00 | 0.00 | 86 | 1016.9 |
| 20260507054552 | 17 | 0 | 0.0 | 0.0 | 0.00 | 0.00 | 0.00 | 86 | 1016.8 |
| 20260507053047 | 17 | 0 | 0.0 | 1.6 | 0.00 | 0.00 | 0.00 | 86 | 1016.9 |
| 20260507051603 | 17 | 0 | 0.0 | 1.6 | 0.00 | 0.00 | 0.00 | 86 | 1016.9 |
| 20260507050049 | 17 | 0 | 0.0 | 1.6 | 0.00 | 0.00 | 0.00 | 86 | 1017.0 |
| 20260507044550 | 17 | 0 | 0.0 | 1.6 | 0.00 | 0.00 | 0.00 | 86 | 1017.0 |
| 20260507043047 | 17 | 0 | 0.0 | 1.6 | 0.00 | 0.00 | 0.00 | 85 | 1016.8 |
| 20260507041547 | 17 | 0 | 0.0 | 1.6 | 0.00 | 0.00 | 0.00 | 85 | 1016.8 |
| 20260507040051 | 17 | 0 | 0.0 | 3.2 | 0.00 | 0.00 | 0.00 | 86 | 1016.7 |
| 20260507034551 | 17 | 0 | 0.0 | 3.2 | 0.00 | 0.00 | 0.00 | 85 | 1016.6 |
| 20260507033050 | 17 | 0 | 0.0 | 3.2 | 0.00 | 0.00 | 0.00 | 84 | 1016.5 |
| 20260507031545 | 17 | 0 | 0.0 | 0.0 | 0.00 | 0.00 | 0.00 | 82 | 1016.4 |
| 20260507030052 | 18 | 0 | 0.0 | 0.0 | 0.00 | 0.00 | 0.00 | 81 | 1016.3 |
| 20260507024550 | 18 | 0 | 0.0 | 1.6 | 0.00 | 0.00 | 0.00 | 80 | 1016.2 |
| 20260507023053 | 18 | 0 | 0.0 | 1.6 | 0.00 | 0.00 | 0.00 | 79 | 1016.0 |
| 20260507021553 | 19 | 0 | 0.0 | 6.4 | 0.00 | 0.00 | 0.00 | 77 | 1016.0 |
| 20260507020103 | 20 | 0 | 0.0 | 3.2 | 0.00 | 0.00 | 0.00 | 77 | 1016.0 |
| 20260507014559 | 20 | 0 | 0.0 | 3.2 | 0.00 | 0.00 | 0.00 | 76 | 1016.0 |
| 20260507013046 | 20 | 0 | 0.0 | 4.8 | 0.00 | 0.00 | 0.00 | 76 | 1016.0 |
| 20260507011551 | 20 | 0 | 0.0 | 6.4 | 0.00 | 0.00 | 0.00 | 76 | 1015.9 |
| 20260507010100 | 21 | 0 | 0.0 | 6.4 | 0.00 | 0.00 | 0.00 | 75 | 1015.9 |
| 20260507004549 | 20 | 0 | 0.0 | 11.3 | 0.00 | 0.00 | 0.00 | 75 | 1015.9 |
| 20260507003052 | 20 | 260 | 0.0 | 9.7 | 0.00 | 0.00 | 0.00 | 76 | 1015.9 |
| 20260507001555 | 20 | 259 | 1.6 | 12.9 | 0.00 | 0.00 | 0.00 | 76 | 1015.7 |
| 20260507000053 | 20 | 262 | 3.2 | 12.9 | 0.00 | 0.00 | 0.00 | 75 | 1015.7 |
| 20260506234550 | 21 | 252 | 1.6 | 12.9 | 0.00 | 0.00 | 0.00 | 74 | 1015.7 |
| 20260506233053 | 21 | 257 | 0.0 | 12.9 | 0.00 | 0.00 | 0.00 | 74 | 1015.7 |
| 20260506231606 | 21 | 260 | 1.6 | 12.9 | 0.00 | 0.00 | 0.00 | 72 | 1015.6 |
| 20260506230109 | 20 | 0 | 1.6 | 12.9 | 0.00 | 0.00 | 0.00 | 73 | 1015.7 |
| 20260506224550 | 20 | 0 | 1.6 | 11.3 | 0.00 | 0.00 | 0.00 | 74 | 1015.9 |
| 20260506223048 | 21 | 258 | 1.6 | 12.9 | 0.00 | 0.00 | 0.00 | 71 | 1016.1 |
| 20260506221609 | 21 | 0 | 1.6 | 16.1 | 0.00 | 0.00 | 0.00 | 73 | 1016.2 |
| 20260506220105 | 21 | 263 | 1.6 | 12.9 | 0.00 | 0.00 | 0.00 | 71 | 1016.4 |
| 20260506214551 | 21 | 0 | 1.6 | 12.9 | 0.00 | 0.00 | 0.00 | 73 | 1016.6 |
| 20260506213105 | 20 | 265 | 4.8 | 16.1 | 0.00 | 0.00 | 0.00 | 72 | 1016.6 |
| 20260506211553 | 20 | 240 | 3.2 | 16.1 | 0.00 | 0.00 | 0.00 | 70 | 1016.6 |
| 20260506210056 | 20 | 0 | 3.2 | 19.3 | 0.00 | 0.00 | 0.00 | 70 | 1016.8 |
| 20260506204605 | 20 | 269 | 1.6 | 12.9 | 0.00 | 0.00 | 0.00 | 71 | 1016.7 |
| 20260506203053 | 20 | 238 | 4.8 | 14.5 | 0.00 | 0.00 | 0.00 | 72 | 1016.8 |
| 20260506201549 | 20 | 265 | 3.2 | 16.1 | 0.00 | 0.00 | 0.00 | 71 | 1016.9 |
| 20260506200048 | 20 | 266 | 1.6 | 14.5 | 0.00 | 0.00 | 0.00 | 72 | 1017.1 |
| 20260506194549 | 20 | 0 | 1.6 | 11.3 | 0.00 | 0.00 | 0.00 | 74 | 1017.3 |
| 20260506193055 | 20 | 257 | 3.2 | 11.3 | 0.00 | 0.00 | 0.00 | 72 | 1017.4 |
| 20260506191553 | 19 | 0 | 1.6 | 11.3 | 0.00 | 0.00 | 0.00 | 72 | 1017.4 |
| 20260506190051 | 20 | 251 | 0.0 | 11.3 | 0.00 | 0.00 | 0.00 | 71 | 1017.5 |
| 20260506184612 | 18 | 0 | 1.6 | 11.3 | 0.00 | 0.00 | 0.00 | 73 | 1017.7 |
| 20260506183049 | 18 | 249 | 3.2 | 8.0 | 0.00 | 0.00 | 0.00 | 71 | 1017.9 |